Weather History for Akron Canton, OH

Change the Weather History Date:

Monday, March 4, 2013

  Actual Average Record
Temperature  
Mean Temperature 25 °F 33 °F  
Max Temperature 36 °F 42 °F 74 °F (1983)
Min Temperature 14 °F 25 °F -1 °F (1943)
Degree Days  
Heating Degree Days 40 32  
Month to date heating degree days 156 129  
Since 1 July heating degree days 4417 4673  
Cooling Degree Days 0 0  
Month to date cooling degree days 0 0  
Year to date cooling degree days 0 0  
Moisture  
Dew Point 17 °F    
Average Humidity 74    
Maximum Humidity 96    
Minimum Humidity 52    
Precipitation  
Precipitation T in 0.08 in 2.44 in (1964)
Month to date precipitation 0.12 0.34  
Year to date precipitation 4.31 5.26  
Snow  
Snow T in 0.40 in - ()
Month to date snowfall 2.0 1.4  
Since 1 July snowfall 38.4 37.9  
Snow Depth 1.00 in    
Sea Level Pressure  
Sea Level Pressure 30.11 in    
Wind  
Wind Speed 5 mph (WNW)    
Max Wind Speed 14 mph    
Max Gust Speed 18 mph    
Visibility 8 miles    
Events Snow    
T = Trace of Precipitation, MM = Missing Value Source: NWS Daily Summary

Daily Weather History Graph

Daily Weather History Graph

Search for Another Location

Airport:

Trip Planner

Search our weather history database for the weather conditions in past years. The results will help you decide how hot, cold, wet, or windy it might be!

Date:

Astronomy

Mar. 04, 2013 Rise Set
Actual Time 6:54 AM EST 6:20 PM EST
Civil Twilight 6:27 AM EST 6:48 PM EST
Nautical Twilight 5:55 AM EST 7:19 PM EST
Astronomical Twilight 5:23 AM EST 7:51 PM EST
Moon 1:04 AM EST (3/4) 10:59 AM EST (3/4)
Length of Visible Light 12h 20m
Length of Day
11h 25m
Waning Gibbous, 52% of the Moon is Illuminated
Mar 4
Waning Gibbous
Mar 4
Last Quarter
Mar 11
New
Mar 19
First Quarter
Mar 27
Full

Hourly Weather History & Observations

Time (EST) Temp. Windchill Dew Point Humidity Pressure Visibility Wind Dir Wind Speed Gust Speed Precip Events Conditions
12:51 AM 21.9 °F 13.4 °F 17.1 °F 82% 30.06 in 7.0 mi NW 6.9 mph - 0.00 in Snow Light Snow
1:51 AM 17.1 °F 10.0 °F 14.0 °F 88% 30.08 in 8.0 mi NNW 4.6 mph - 0.00 in   Mostly Cloudy
2:51 AM 19.0 °F 12.3 °F 15.1 °F 85% 30.08 in 9.0 mi West 4.6 mph - N/A   Overcast
3:51 AM 19.0 °F 12.3 °F 16.0 °F 88% 30.08 in 8.0 mi West 4.6 mph - N/A   Mostly Cloudy
4:51 AM 18.0 °F - 14.0 °F 84% 30.08 in 6.0 mi Calm Calm - N/A   Partly Cloudy
5:51 AM 15.8 °F 7.2 °F 12.2 °F 86% 30.05 in 4.0 mi WSW 5.8 mph - N/A   Clear
6:51 AM 14.0 °F 5.1 °F 12.0 °F 92% 30.13 in 4.0 mi WSW 5.8 mph - N/A   Partly Cloudy
7:51 AM 17.1 °F 8.7 °F 14.0 °F 88% 30.14 in 4.0 mi West 5.8 mph - N/A   Partly Cloudy
8:51 AM 21.0 °F 13.4 °F 16.0 °F 81% 30.14 in 5.0 mi West 5.8 mph - N/A   Haze
9:51 AM 25.0 °F 19.3 °F 18.0 °F 75% 30.16 in 7.0 mi Variable 4.6 mph - N/A   Partly Cloudy
10:51 AM 27.0 °F 19.5 °F 18.0 °F 69% 30.15 in 7.0 mi WNW 6.9 mph - N/A   Partly Cloudy
11:51 AM 30.0 °F 21.7 °F 19.0 °F 64% 30.14 in 10.0 mi WNW 9.2 mph - N/A   Scattered Clouds
12:51 PM 30.9 °F 23.5 °F 19.0 °F 61% 30.13 in 10.0 mi West 8.1 mph - N/A   Scattered Clouds
1:51 PM 33.1 °F 28.7 °F 19.9 °F 59% 30.11 in 10.0 mi WNW 4.6 mph - N/A   Scattered Clouds
2:51 PM 35.1 °F 30.1 °F 19.9 °F 54% 30.10 in 10.0 mi Variable 5.8 mph - N/A   Scattered Clouds
3:51 PM 36.0 °F 30.3 °F 21.9 °F 57% 30.09 in 9.0 mi WNW 6.9 mph - N/A   Scattered Clouds
4:51 PM 34.0 °F 26.6 °F 19.9 °F 56% 30.09 in 8.0 mi West 9.2 mph - N/A   Scattered Clouds
5:51 PM 33.1 °F 26.1 °F 19.9 °F 59% 30.10 in 8.0 mi WNW 8.1 mph - N/A   Scattered Clouds
6:51 PM 30.0 °F - 19.0 °F 64% 30.11 in 9.0 mi Calm Calm - N/A   Mostly Cloudy
7:51 PM 30.0 °F - 18.0 °F 61% 30.11 in 9.0 mi Calm Calm - N/A   Mostly Cloudy
8:51 PM 26.1 °F 18.4 °F 18.0 °F 71% 30.10 in 9.0 mi NNE 6.9 mph - N/A   Mostly Cloudy
9:51 PM 26.1 °F 19.4 °F 19.0 °F 75% 30.10 in 8.0 mi NNE 5.8 mph - N/A   Mostly Cloudy
10:51 PM 25.0 °F 19.3 °F 18.0 °F 75% 30.11 in 8.0 mi NNE 4.6 mph - N/A   Mostly Cloudy
11:51 PM 25.0 °F 20.7 °F 17.1 °F 72% 30.11 in 8.0 mi NE 3.5 mph - N/A   Mostly Cloudy